Zurück zum Katalog

NAVSTAR 71

USA 256

AktivNavigationHEO
NORAD 40105·PAYLOAD·🇺🇸 United States

Gestartet Aug 2, 2014 von Cape Canaveral Space Force Station

Loading…

Nächste Überflüge (nächste 24 Stunden)

TLE

AktuellSource: CelesTrak SupGP

Epoche: Sep 16, 2026, 16:44 UTC

1 40105C 14045A   26259.69756944  .00000000  00000+0  00000+0 0  2595
2 40105  55.4179  84.8201 0036421 120.1988 171.1033  2.00564669    16

Verfolge NAVSTAR 71 in Echtzeit mit AllMySat

Download on the App Store